| time (UTC) | temp C | wind direction | speed KPH | gust KPH | rain 1hr cm | rain 24hr cm | rain mn cm | humidity % | barometer mb |
| 20260502185059 | 17 | 66 | 6.4 | 12.9 | 0.00 | 0.00 | 0.00 | 50 | 1018.3 |
| 20260502184555 | 17 | 67 | 6.4 | 11.3 | 0.00 | 0.00 | 0.00 | 46 | 1018.2 |
| 20260502184051 | 17 | 46 | 12.9 | 16.1 | 0.00 | 0.00 | 0.00 | 50 | 1018.1 |
| 20260502183548 | 17 | 77 | 8.0 | 11.3 | 0.00 | 0.00 | 0.00 | 40 | 1018.3 |
| 20260502183044 | 17 | 67 | 4.8 | 4.8 | 0.00 | 0.00 | 0.00 | 42 | 1018.3 |
| 20260502182539 | 17 | 0 | 6.4 | 9.7 | 0.00 | 0.00 | 0.00 | 42 | 1018.4 |
| 20260502182035 | 17 | 94 | 1.6 | 11.3 | 0.00 | 0.00 | 0.00 | 38 | 1018.4 |
| 20260502181533 | 18 | 204 | 0.0 | 6.4 | 0.00 | 0.00 | 0.00 | 40 | 1018.5 |
| 20260502181032 | 17 | 82 | 6.4 | 11.3 | 0.00 | 0.00 | 0.00 | 44 | 1018.4 |
| 20260502180528 | 17 | 60 | 12.9 | 14.5 | 0.00 | 0.00 | 0.00 | 52 | 1018.4 |
| 20260502170447 | 15 | 70 | 8.0 | 11.3 | 0.00 | 0.00 | 0.00 | 49 | 1019.1 |
| 20260502163931 | 15 | 48 | 12.9 | 14.5 | 0.00 | 0.00 | 0.00 | 53 | 1019.4 |
| 20260502163427 | 15 | 58 | 9.7 | 16.1 | 0.00 | 0.00 | 0.00 | 53 | 1019.3 |
| 20260502162925 | 16 | 65 | 8.0 | 11.3 | 0.00 | 0.00 | 0.00 | 50 | 1019.2 |
| 20260502162421 | 15 | 68 | 12.9 | 12.9 | 0.00 | 0.00 | 0.00 | 51 | 1019.6 |
| 20260502161918 | 15 | 76 | 9.7 | 12.9 | 0.00 | 0.00 | 0.00 | 48 | 1019.5 |
| 20260502161414 | 15 | 83 | 4.8 | 11.3 | 0.00 | 0.00 | 0.00 | 50 | 1019.8 |
| 20260502160912 | 15 | 357 | 3.2 | 11.3 | 0.00 | 0.00 | 0.00 | 55 | 1019.6 |
| 20260502160410 | 15 | 91 | 3.2 | 9.7 | 0.00 | 0.00 | 0.00 | 50 | 1019.5 |
| 20260502151849 | 15 | 47 | 6.4 | 9.7 | 0.00 | 0.00 | 0.00 | 51 | 1019.5 |
| 20260502151345 | 15 | 58 | 6.4 | 6.4 | 0.00 | 0.00 | 0.00 | 48 | 1019.3 |
| 20260502150843 | 15 | 15 | 3.2 | 6.4 | 0.00 | 0.00 | 0.00 | 48 | 1019.0 |
| 20260502150339 | 15 | 85 | 9.7 | 12.9 | 0.00 | 0.00 | 0.00 | 46 | 1019.0 |
| 20260502130727 | 12 | 295 | 9.7 | 12.9 | 0.00 | 0.00 | 0.00 | 60 | 1018.8 |
| 20260502130225 | 13 | 15 | 1.6 | 3.2 | 0.00 | 0.00 | 0.00 | 62 | 1018.5 |
| 20260502123711 | 12 | 25 | 1.6 | 6.4 | 0.00 | 0.00 | 0.00 | 64 | 1018.3 |
| 20260502123208 | 12 | 342 | 1.6 | 3.2 | 0.00 | 0.00 | 0.00 | 66 | 1018.3 |
| 20260502122704 | 12 | 314 | 1.6 | 4.8 | 0.00 | 0.00 | 0.00 | 67 | 1018.3 |
| 20260502122201 | 12 | 19 | 1.6 | 9.7 | 0.00 | 0.00 | 0.00 | 67 | 1018.0 |
| 20260502121659 | 12 | 283 | 3.2 | 4.8 | 0.00 | 0.00 | 0.00 | 67 | 1018.3 |
| 20260502121156 | 11 | 284 | 6.4 | 6.4 | 0.00 | 0.00 | 0.00 | 67 | 1018.2 |
| 20260502120653 | 11 | 301 | 3.2 | 4.8 | 0.00 | 0.00 | 0.00 | 68 | 1018.3 |
| 20260502120150 | 11 | 28 | 0.0 | 4.8 | 0.00 | 0.00 | 0.00 | 67 | 1018.1 |
| 20260502115647 | 11 | 295 | 3.2 | 6.4 | 0.00 | 0.00 | 0.00 | 68 | 1018.2 |
| 20260502115143 | 11 | 308 | 0.0 | 1.6 | 0.00 | 0.00 | 0.00 | 69 | 1018.1 |
| 20260502114639 | 11 | 310 | 3.2 | 3.2 | 0.00 | 0.00 | 0.00 | 68 | 1018.1 |
| 20260502114137 | 11 | 272 | 1.6 | 4.8 | 0.00 | 0.00 | 0.00 | 66 | 1017.9 |
| 20260502113634 | 11 | 275 | 3.2 | 4.8 | 0.00 | 0.00 | 0.00 | 66 | 1018.2 |
| 20260502113132 | 11 | 277 | 3.2 | 4.8 | 0.00 | 0.00 | 0.00 | 67 | 1018.1 |
| 20260502112630 | 11 | 294 | 1.6 | 3.2 | 0.00 | 0.00 | 0.00 | 67 | 1018.2 |
| 20260502112127 | 11 | 277 | 1.6 | 6.4 | 0.00 | 0.00 | 0.00 | 66 | 1018.2 |
| 20260502111625 | 11 | 306 | 0.0 | 3.2 | 0.00 | 0.00 | 0.00 | 65 | 1017.9 |
| 20260502111122 | 12 | 312 | 4.8 | 6.4 | 0.00 | 0.00 | 0.00 | 68 | 1017.7 |
| 20260502110620 | 11 | 16 | 1.6 | 3.2 | 0.00 | 0.00 | 0.00 | 66 | 1017.9 |
| 20260502110117 | 11 | 329 | 3.2 | 4.8 | 0.00 | 0.00 | 0.00 | 64 | 1017.9 |
| 20260502105614 | 11 | 329 | 0.0 | 3.2 | 0.00 | 0.00 | 0.00 | 65 | 1017.9 |
| 20260502105111 | 11 | 46 | 0.0 | 3.2 | 0.00 | 0.00 | 0.00 | 65 | 1017.5 |
| 20260502104608 | 12 | 288 | 1.6 | 4.8 | 0.00 | 0.00 | 0.00 | 67 | 1017.5 |
| 20260502104106 | 12 | 256 | 1.6 | 3.2 | 0.00 | 0.00 | 0.00 | 66 | 1017.4 |
| 20260502103603 | 12 | 286 | 3.2 | 4.8 | 0.00 | 0.00 | 0.00 | 66 | 1017.6 |
| 20260502103101 | 12 | 311 | 3.2 | 6.4 | 0.00 | 0.00 | 0.00 | 63 | 1017.4 |
| 20260502102557 | 12 | 266 | 4.8 | 4.8 | 0.00 | 0.00 | 0.00 | 64 | 1017.4 |
| 20260502102054 | 12 | 299 | 3.2 | 6.4 | 0.00 | 0.00 | 0.00 | 64 | 1017.3 |
| 20260502101552 | 12 | 50 | 4.8 | 9.7 | 0.00 | 0.00 | 0.00 | 65 | 1017.6 |
| 20260502101050 | 12 | 319 | 3.2 | 6.4 | 0.00 | 0.00 | 0.00 | 63 | 1017.5 |
| 20260502100549 | 12 | 285 | 4.8 | 9.7 | 0.00 | 0.00 | 0.00 | 64 | 1017.6 |
| 20260502091523 | 12 | 288 | 3.2 | 6.4 | 0.00 | 0.00 | 0.00 | 61 | 1017.3 |
| 20260502091021 | 12 | 289 | 3.2 | 6.4 | 0.00 | 0.00 | 0.00 | 62 | 1017.4 |
| 20260502090517 | 12 | 273 | 4.8 | 6.4 | 0.00 | 0.00 | 0.00 | 61 | 1017.5 |
| 20260502071412 | 13 | 306 | 3.2 | 4.8 | 0.00 | 0.00 | 0.00 | 56 | 1018.1 |
| 20260502070910 | 13 | 308 | 3.2 | 6.4 | 0.00 | 0.00 | 0.00 | 56 | 1018.2 |
| 20260502070408 | 13 | 322 | 3.2 | 4.8 | 0.00 | 0.00 | 0.00 | 56 | 1018.7 |
| 20260502065906 | 13 | 346 | 3.2 | 3.2 | 0.00 | 0.00 | 0.00 | 57 | 1018.5 |
| 20260502065404 | 13 | 4 | 1.6 | 4.8 | 0.00 | 0.00 | 0.00 | 56 | 1018.7 |
| 20260502064902 | 13 | 303 | 3.2 | 3.2 | 0.00 | 0.00 | 0.00 | 59 | 1018.4 |
| 20260502064400 | 13 | 276 | 3.2 | 3.2 | 0.00 | 0.00 | 0.00 | 57 | 1018.5 |
| 20260502063856 | 13 | 281 | 1.6 | 4.8 | 0.00 | 0.00 | 0.00 | 55 | 1018.3 |
| 20260502063354 | 13 | 285 | 1.6 | 3.2 | 0.00 | 0.00 | 0.00 | 56 | 1018.5 |
| 20260502062851 | 13 | 284 | 3.2 | 4.8 | 0.00 | 0.00 | 0.00 | 54 | 1018.4 |
| 20260502062349 | 13 | 358 | 0.0 | 4.8 | 0.00 | 0.00 | 0.00 | 54 | 1018.2 |
| 20260502061848 | 13 | 308 | 1.6 | 6.4 | 0.00 | 0.00 | 0.00 | 54 | 1018.3 |
| 20260502061345 | 13 | 304 | 3.2 | 6.4 | 0.00 | 0.00 | 0.00 | 54 | 1018.2 |
| 20260502060841 | 13 | 305 | 1.6 | 3.2 | 0.00 | 0.00 | 0.00 | 55 | 1018.3 |
| 20260502060336 | 13 | 112 | 0.0 | 3.2 | 0.00 | 0.00 | 0.00 | 54 | 1018.7 |
| 20260502055834 | 13 | 69 | 0.0 | 0.0 | 0.00 | 0.00 | 0.00 | 54 | 1018.5 |
| 20260502055331 | 13 | 324 | 1.6 | 4.8 | 0.00 | 0.00 | 0.00 | 54 | 1018.7 |
| 20260502054831 | 14 | 306 | 3.2 | 6.4 | 0.00 | 0.00 | 0.00 | 53 | 1018.7 |
| 20260502054328 | 14 | 269 | 1.6 | 3.2 | 0.00 | 0.00 | 0.00 | 56 | 1018.8 |
| 20260502053825 | 14 | 300 | 3.2 | 3.2 | 0.00 | 0.00 | 0.00 | 52 | 1018.2 |
| 20260502053322 | 14 | 299 | 3.2 | 3.2 | 0.00 | 0.00 | 0.00 | 55 | 1018.1 |
| 20260502052820 | 14 | 324 | 0.0 | 3.2 | 0.00 | 0.00 | 0.00 | 52 | 1018.3 |
| 20260502052318 | 14 | 1 | 1.6 | 3.2 | 0.00 | 0.00 | 0.00 | 53 | 1018.2 |
| 20260502051815 | 14 | 326 | 0.0 | 3.2 | 0.00 | 0.00 | 0.00 | 53 | 1018.2 |
| 20260502051314 | 14 | 289 | 1.6 | 3.2 | 0.00 | 0.00 | 0.00 | 52 | 1018.2 |
| 20260502050810 | 14 | 332 | 3.2 | 4.8 | 0.00 | 0.00 | 0.00 | 54 | 1018.1 |
| 20260502050306 | 14 | 281 | 1.6 | 3.2 | 0.00 | 0.00 | 0.00 | 53 | 1018.2 |
| 20260502045803 | 15 | 37 | 0.0 | 0.0 | 0.00 | 0.00 | 0.00 | 53 | 1018.0 |
| 20260502045300 | 15 | 61 | 1.6 | 1.6 | 0.00 | 0.00 | 0.00 | 52 | 1018.3 |
| 20260502044757 | 15 | 315 | 3.2 | 3.2 | 0.00 | 0.00 | 0.00 | 52 | 1018.2 |
| 20260502044253 | 15 | 281 | 1.6 | 3.2 | 0.00 | 0.00 | 0.00 | 52 | 1018.1 |
| 20260502043751 | 15 | 18 | 1.6 | 6.4 | 0.00 | 0.00 | 0.00 | 54 | 1018.3 |
| 20260502043248 | 15 | 296 | 3.2 | 3.2 | 0.00 | 0.00 | 0.00 | 52 | 1018.1 |
| 20260502042747 | 15 | 353 | 3.2 | 4.8 | 0.00 | 0.00 | 0.00 | 52 | 1018.0 |
| 20260502042245 | 15 | 151 | 0.0 | 4.8 | 0.00 | 0.00 | 0.00 | 53 | 1018.1 |
| 20260502041743 | 15 | 72 | 1.6 | 3.2 | 0.00 | 0.00 | 0.00 | 54 | 1018.0 |
| 20260502041240 | 15 | 305 | 4.8 | 4.8 | 0.00 | 0.00 | 0.00 | 53 | 1018.2 |
| 20260502040736 | 15 | 43 | 1.6 | 4.8 | 0.00 | 0.00 | 0.00 | 53 | 1018.2 |
| 20260502040233 | 15 | 19 | 1.6 | 4.8 | 0.00 | 0.00 | 0.00 | 54 | 1018.2 |
| 20260502035729 | 15 | 126 | 0.0 | 3.2 | 0.00 | 0.00 | 0.00 | 56 | 1018.2 |
| 20260502035226 | 15 | 352 | 3.2 | 4.8 | 0.00 | 0.00 | 0.00 | 54 | 1018.4 |
| 20260502034724 | 15 | 72 | 1.6 | 3.2 | 0.00 | 0.00 | 0.00 | 57 | 1018.4 |
| 20260502034222 | 15 | 322 | 4.8 | 6.4 | 0.00 | 0.00 | 0.00 | 57 | 1018.1 |
| 20260502033720 | 15 | 348 | 3.2 | 11.3 | 0.00 | 0.00 | 0.00 | 57 | 1018.1 |
| 20260502033217 | 15 | 300 | 1.6 | 3.2 | 0.00 | 0.00 | 0.00 | 60 | 1018.2 |
| 20260502032714 | 16 | 353 | 1.6 | 3.2 | 0.00 | 0.00 | 0.00 | 62 | 1018.3 |
| 20260502032209 | 16 | 0 | 4.8 | 6.4 | 0.00 | 0.00 | 0.00 | 58 | 1018.2 |
| 20260502031708 | 16 | 320 | 4.8 | 6.4 | 0.00 | 0.00 | 0.00 | 60 | 1018.3 |
| 20260502031205 | 16 | 306 | 3.2 | 6.4 | 0.00 | 0.00 | 0.00 | 60 | 1018.1 |
| 20260502030704 | 16 | 315 | 3.2 | 4.8 | 0.00 | 0.00 | 0.00 | 60 | 1018.1 |
| 20260502030202 | 16 | 68 | 1.6 | 4.8 | 0.00 | 0.00 | 0.00 | 60 | 1018.0 |
| 20260502025658 | 16 | 68 | 0.0 | 3.2 | 0.00 | 0.00 | 0.00 | 60 | 1018.1 |
| 20260502025156 | 16 | 32 | 1.6 | 4.8 | 0.00 | 0.00 | 0.00 | 61 | 1017.9 |
| 20260502024654 | 16 | 103 | 0.0 | 4.8 | 0.00 | 0.00 | 0.00 | 61 | 1017.8 |
| 20260502024152 | 16 | 33 | 4.8 | 4.8 | 0.00 | 0.00 | 0.00 | 60 | 1017.8 |
| 20260502023650 | 16 | 1 | 3.2 | 4.8 | 0.00 | 0.00 | 0.00 | 61 | 1017.8 |
| 20260502023147 | 16 | 25 | 1.6 | 6.4 | 0.00 | 0.00 | 0.00 | 59 | 1017.9 |
| 20260502022644 | 16 | 20 | 1.6 | 3.2 | 0.00 | 0.00 | 0.00 | 59 | 1018.1 |
| 20260502022141 | 16 | 288 | 1.6 | 3.2 | 0.00 | 0.00 | 0.00 | 59 | 1017.8 |
| 20260502021638 | 16 | 77 | 0.0 | 1.6 | 0.00 | 0.00 | 0.00 | 62 | 1017.7 |
| 20260502021135 | 16 | 293 | 1.6 | 4.8 | 0.00 | 0.00 | 0.00 | 60 | 1017.9 |
| 20260502020632 | 16 | 277 | 1.6 | 3.2 | 0.00 | 0.00 | 0.00 | 61 | 1017.6 |
| 20260502020129 | 16 | 339 | 3.2 | 6.4 | 0.00 | 0.00 | 0.00 | 59 | 1017.9 |
| 20260502015627 | 16 | 329 | 1.6 | 4.8 | 0.00 | 0.00 | 0.00 | 59 | 1017.9 |
| 20260502015123 | 17 | 1 | 3.2 | 4.8 | 0.00 | 0.00 | 0.00 | 60 | 1017.6 |
| 20260502014620 | 17 | 252 | 3.2 | 6.4 | 0.00 | 0.00 | 0.00 | 60 | 1017.3 |
| 20260502014118 | 17 | 286 | 9.7 | 11.3 | 0.00 | 0.00 | 0.00 | 61 | 1017.6 |
| 20260502013613 | 17 | 309 | 6.4 | 6.4 | 0.00 | 0.00 | 0.00 | 61 | 1017.2 |
| 20260502013109 | 17 | 289 | 3.2 | 6.4 | 0.00 | 0.00 | 0.00 | 60 | 1017.4 |
| 20260502012607 | 17 | 299 | 3.2 | 4.8 | 0.00 | 0.00 | 0.00 | 61 | 1017.4 |
| 20260502012105 | 17 | 307 | 6.4 | 11.3 | 0.00 | 0.00 | 0.00 | 59 | 1017.5 |
| 20260502011601 | 17 | 272 | 4.8 | 6.4 | 0.00 | 0.00 | 0.00 | 60 | 1017.1 |
| 20260502011057 | 17 | 316 | 3.2 | 4.8 | 0.00 | 0.00 | 0.00 | 59 | 1017.0 |
| 20260502010555 | 17 | 285 | 3.2 | 4.8 | 0.00 | 0.00 | 0.00 | 59 | 1016.7 |
| 20260502010051 | 17 | 307 | 4.8 | 4.8 | 0.00 | 0.00 | 0.00 | 58 | 1016.6 |
| 20260502005549 | 17 | 293 | 1.6 | 3.2 | 0.00 | 0.00 | 0.00 | 59 | 1016.6 |
| 20260502005046 | 17 | 296 | 1.6 | 3.2 | 0.00 | 0.00 | 0.00 | 60 | 1016.6 |
| 20260502004542 | 17 | 309 | 1.6 | 3.2 | 0.00 | 0.00 | 0.00 | 58 | 1016.6 |
| 20260502004039 | 17 | 340 | 3.2 | 4.8 | 0.00 | 0.00 | 0.00 | 56 | 1016.5 |
| 20260502003537 | 17 | 345 | 0.0 | 3.2 | 0.00 | 0.00 | 0.00 | 57 | 1016.2 |
| 20260502003033 | 17 | 333 | 1.6 | 4.8 | 0.00 | 0.00 | 0.00 | 56 | 1016.3 |
| 20260502002530 | 17 | 324 | 3.2 | 3.2 | 0.00 | 0.00 | 0.00 | 58 | 1016.3 |
| 20260502002027 | 17 | 304 | 1.6 | 3.2 | 0.00 | 0.00 | 0.00 | 60 | 1016.5 |
| 20260502001525 | 17 | 199 | 0.0 | 1.6 | 0.00 | 0.00 | 0.00 | 62 | 1016.3 |
| 20260502001022 | 17 | 268 | 0.0 | 1.6 | 0.00 | 0.00 | 0.00 | 64 | 1015.9 |
| 20260502000520 | 17 | 297 | 1.6 | 3.2 | 0.00 | 0.00 | 0.00 | 63 | 1016.0 |
| 20260502000017 | 17 | 285 | 1.6 | 1.6 | 0.00 | 0.00 | 0.00 | 62 | 1016.2 |
| 20260501235513 | 18 | 273 | 3.2 | 3.2 | 0.00 | 0.00 | 0.00 | 61 | 1016.2 |
| 20260501235008 | 18 | 337 | 1.6 | 3.2 | 0.00 | 0.00 | 0.00 | 60 | 1016.2 |
| 20260501234504 | 18 | 296 | 3.2 | 3.2 | 0.00 | 0.00 | 0.00 | 59 | 1016.1 |
| 20260501234003 | 18 | 295 | 1.6 | 3.2 | 0.00 | 0.00 | 0.00 | 54 | 1015.9 |
| 20260501233500 | 18 | 213 | 0.0 | 1.6 | 0.00 | 0.00 | 0.00 | 62 | 1016.1 |
| 20260501232956 | 18 | 321 | 0.0 | 3.2 | 0.00 | 0.00 | 0.00 | 59 | 1016.2 |
| 20260501232453 | 18 | 168 | 0.0 | 3.2 | 0.00 | 0.00 | 0.00 | 56 | 1016.1 |
| 20260501231950 | 19 | 324 | 1.6 | 1.6 | 0.00 | 0.00 | 0.00 | 53 | 1016.2 |
| 20260501231449 | 19 | 348 | 1.6 | 1.6 | 0.00 | 0.00 | 0.00 | 51 | 1015.9 |
| 20260501230946 | 19 | 44 | 0.0 | 1.6 | 0.00 | 0.00 | 0.00 | 57 | 1016.1 |
| 20260501230445 | 19 | 96 | 1.6 | 1.6 | 0.00 | 0.00 | 0.00 | 59 | 1016.2 |
| 20260501225942 | 20 | 174 | 1.6 | 3.2 | 0.00 | 0.00 | 0.00 | 57 | 1015.7 |
| 20260501225440 | 20 | 207 | 3.2 | 4.8 | 0.00 | 0.00 | 0.00 | 58 | 1015.6 |
| 20260501224935 | 20 | 148 | 6.4 | 6.4 | 0.00 | 0.00 | 0.00 | 61 | 1015.5 |
| 20260501224433 | 20 | 146 | 3.2 | 4.8 | 0.00 | 0.00 | 0.00 | 59 | 1015.5 |
| 20260501223930 | 20 | 275 | 1.6 | 1.6 | 0.00 | 0.00 | 0.00 | 53 | 1015.5 |
| 20260501223426 | 20 | 292 | 3.2 | 4.8 | 0.00 | 0.00 | 0.00 | 50 | 1015.5 |
| 20260501222922 | 20 | 248 | 0.0 | 1.6 | 0.00 | 0.00 | 0.00 | 47 | 1015.6 |
| 20260501222419 | 21 | 195 | 0.0 | 1.6 | 0.00 | 0.00 | 0.00 | 51 | 1015.4 |
| 20260501221915 | 21 | 277 | 1.6 | 3.2 | 0.00 | 0.00 | 0.00 | 44 | 1015.4 |
| 20260501221413 | 22 | 117 | 0.0 | 1.6 | 0.00 | 0.00 | 0.00 | 49 | 1015.4 |
| 20260501220911 | 21 | 189 | 1.6 | 3.2 | 0.00 | 0.00 | 0.00 | 50 | 1015.4 |
| 20260501220408 | 21 | 208 | 0.0 | 1.6 | 0.00 | 0.00 | 0.00 | 51 | 1015.3 |
| 20260501215904 | 21 | 201 | 1.6 | 4.8 | 0.00 | 0.00 | 0.00 | 47 | 1015.4 |
| 20260501215401 | 21 | 168 | 3.2 | 4.8 | 0.00 | 0.00 | 0.00 | 48 | 1015.4 |
| 20260501214856 | 21 | 187 | 0.0 | 1.6 | 0.00 | 0.00 | 0.00 | 49 | 1015.6 |
| 20260501214351 | 21 | 181 | 1.6 | 3.2 | 0.00 | 0.00 | 0.00 | 48 | 1015.9 |
| 20260501213847 | 21 | 176 | 3.2 | 4.8 | 0.00 | 0.00 | 0.00 | 46 | 1015.8 |
| 20260501213344 | 21 | 165 | 3.2 | 4.8 | 0.00 | 0.00 | 0.00 | 48 | 1016.0 |
| 20260501212840 | 21 | 171 | 3.2 | 4.8 | 0.00 | 0.00 | 0.00 | 45 | 1016.0 |
| 20260501212337 | 21 | 166 | 4.8 | 6.4 | 0.00 | 0.00 | 0.00 | 47 | 1016.2 |
| 20260501211834 | 21 | 156 | 0.0 | 4.8 | 0.00 | 0.00 | 0.00 | 46 | 1016.1 |
| 20260501211331 | 21 | 177 | 4.8 | 6.4 | 0.00 | 0.00 | 0.00 | 47 | 1016.2 |
| 20260501210828 | 21 | 189 | 4.8 | 4.8 | 0.00 | 0.00 | 0.00 | 48 | 1016.4 |
| 20260501210326 | 21 | 193 | 3.2 | 6.4 | 0.00 | 0.00 | 0.00 | 50 | 1016.3 |
| 20260501205822 | 21 | 167 | 3.2 | 6.4 | 0.00 | 0.00 | 0.00 | 46 | 1016.4 |
| 20260501205319 | 21 | 197 | 4.8 | 4.8 | 0.00 | 0.00 | 0.00 | 47 | 1016.4 |
| 20260501204815 | 20 | 194 | 3.2 | 6.4 | 0.00 | 0.00 | 0.00 | 45 | 1016.4 |
| 20260501204312 | 20 | 194 | 6.4 | 9.7 | 0.00 | 0.00 | 0.00 | 48 | 1016.4 |
| 20260501203808 | 21 | 175 | 6.4 | 9.7 | 0.00 | 0.00 | 0.00 | 49 | 1016.7 |
| 20260501203306 | 21 | 178 | 4.8 | 4.8 | 0.00 | 0.00 | 0.00 | 46 | 1016.4 |
| 20260501202803 | 21 | 174 | 6.4 | 6.4 | 0.00 | 0.00 | 0.00 | 47 | 1016.5 |
| 20260501202259 | 21 | 171 | 4.8 | 6.4 | 0.00 | 0.00 | 0.00 | 47 | 1016.6 |
| 20260501201756 | 20 | 212 | 4.8 | 6.4 | 0.00 | 0.00 | 0.00 | 47 | 1016.5 |
| 20260501201253 | 20 | 203 | 8.0 | 11.3 | 0.00 | 0.00 | 0.00 | 55 | 1016.8 |
| 20260501200750 | 20 | 192 | 3.2 | 6.4 | 0.00 | 0.00 | 0.00 | 48 | 1016.8 |
| 20260501200247 | 20 | 193 | 6.4 | 9.7 | 0.00 | 0.00 | 0.00 | 49 | 1017.1 |
| 20260501195744 | 21 | 190 | 6.4 | 9.7 | 0.00 | 0.00 | 0.00 | 49 | 1017.1 |
| 20260501195240 | 21 | 176 | 3.2 | 4.8 | 0.00 | 0.00 | 0.00 | 48 | 1017.0 |
| 20260501194736 | 21 | 174 | 4.8 | 4.8 | 0.00 | 0.00 | 0.00 | 48 | 1017.1 |
| 20260501194232 | 20 | 182 | 3.2 | 6.4 | 0.00 | 0.00 | 0.00 | 47 | 1017.4 |
| 20260501193729 | 20 | 165 | 4.8 | 6.4 | 0.00 | 0.00 | 0.00 | 49 | 1017.3 |
| 20260501193227 | 20 | 161 | 3.2 | 4.8 | 0.00 | 0.00 | 0.00 | 47 | 1017.3 |
| 20260501192724 | 21 | 163 | 4.8 | 6.4 | 0.00 | 0.00 | 0.00 | 48 | 1017.4 |
| 20260501192221 | 20 | 183 | 4.8 | 6.4 | 0.00 | 0.00 | 0.00 | 48 | 1017.6 |
| 20260501191719 | 20 | 183 | 6.4 | 6.4 | 0.00 | 0.00 | 0.00 | 49 | 1017.5 |
| 20260501191216 | 20 | 187 | 4.8 | 4.8 | 0.00 | 0.00 | 0.00 | 47 | 1017.7 |
| 20260501190712 | 20 | 189 | 3.2 | 6.4 | 0.00 | 0.00 | 0.00 | 50 | 1017.8 |
| 20260501190208 | 21 | 195 | 3.2 | 4.8 | 0.00 | 0.00 | 0.00 | 49 | 1017.6 |
| 20260501185704 | 21 | 217 | 1.6 | 4.8 | 0.00 | 0.00 | 0.00 | 48 | 1017.4 |